#timestamp,LO_Frequency,Hit,StdDev 
1597096815.1,286047002.7,N
1597096835.8,286047002.7,N
1597096855.7,286046999.8,N
1597096875.5,286047002.8,N
1597096895.4,286047002.7,N
1597096915.2,286047000.3,N
1597096935.0,286047000.1,N
1597096935.9,286047000.1,N
1597096955.8,286046999.8,N
1597096975.6,286047001.9,N
1597096995.4,286047002.8,N
1597097015.3,286047002.3,N
1597097035.1,286047002.4,N
1597097055.9,286047002.1,N
1597097075.7,286047001.5,N
1597097095.5,286047002.6,N
1597097115.4,286047002.5,N
1597097135.2,286047001.4,N
1597097155.1,286047004.0,Y
1597097156.0,286047004.0,P
1597097175.8,286047000.0,N
1597097195.6,286047000.4,N
1597097215.5,286046999.9,N
1597097235.3,286046999.9,N
1597097255.1,286047000.2,N
1597097275.9,286047000.3,N
1597097295.7,286047002.6,N
1597097315.6,286047001.5,N
1597097335.4,286047002.6,N
1597097355.2,286047002.4,N
1597097375.1,286047002.3,N
1597097376.0,286047002.3,N
1597097395.8,286047002.0,N
1597097415.7,286047001.3,N
1597097435.5,286047002.5,N
1597097455.3,286047002.7,N
1597097475.2,286047002.1,N
1597097495.9,286046999.9,N
1597097515.7,286047000.1,N
1597097535.6,286047002.5,N
1597097555.4,286047002.1,N
1597097575.2,286046999.7,N
1597097595.1,286047002.1,N
1597097596.0,286047002.1,N
1597097615.8,286047001.8,N
1597097635.7,286047002.5,N
1597097655.5,286047001.4,N
1597097675.3,286047001.3,N
1597097695.2,286047003.4,Y
1597097715.0,286047001.5,P
1597097715.9,286047001.5,P
1597097735.8,286047001.7,P
1597097755.6,286047004.4,Y
1597097775.4,286047002.8,P
1597097795.3,286046999.8,N
1597097815.1,286047001.0,N
1597097835.9,286047000.7,N
1597097855.7,286047000.4,N
1597097875.5,286047000.1,N
1597097895.4,286047000.7,N
1597097915.2,286047001.0,N
1597097935.1,286046999.9,N
1597097936.0,286046999.9,N
1597097955.8,286047000.7,N
1597097975.7,286047001.1,N
1597097995.5,286046998.3,N
1597098015.3,286046998.6,N
1597098035.2,286047001.1,N
1597098055.0,286047000.7,N
1597098055.9,286047000.7,N
1597098075.8,286047000.7,N
1597098095.6,286047000.6,N
1597098115.4,286046999.8,N
1597098135.3,286047000.4,N
1597098155.1,286047000.4,N
1597098175.8,286046999.9,N
1597098195.7,286047002.4,N
1597098215.5,286047002.7,N
1597098235.4,286047000.2,N
1597098255.2,286047001.0,N
1597098275.0,286046999.9,N
1597098275.9,286046999.9,N
1597098295.8,286046999.8,N
1597098315.6,286047001.0,N
1597098335.5,286047000.7,N
1597098355.3,286047000.5,N
1597098375.1,286047000.3,N
1597098395.9,286047000.3,N
1597098415.7,286047000.2,N
1597098435.5,286047000.0,N
1597098455.4,286047000.0,N
1597098475.2,286046999.8,N
1597098495.1,286046999.8,N
1597098496.0,286046999.8,N
1597098515.8,286047000.0,N
1597098535.6,286047000.1,N
1597098555.5,286047002.4,Y
1597098575.3,286047000.4,P
1597098595.2,286047000.5,P
1597098615.9,286047000.8,P
1597098635.7,286047000.9,Y
1597098655.6,286047000.9,P
1597098675.4,286047000.6,N
1597098695.2,286047000.7,P
1597098715.1,286046998.3,Y
1597098716.0,286046998.3,P
1597098735.8,286046999.5,N
1597098755.7,286046997.3,N
1597098775.5,286046999.6,N
1597098795.3,286046998.4,N
1597098815.2,286046998.5,N
1597098835.0,286046998.9,N
1597098835.9,286046998.9,N
1597098855.8,286046998.3,N
1597098875.6,286047000.7,N
1597098895.4,286047001.2,N
1597098915.3,286047001.2,N
1597098935.1,286046998.2,N
1597098955.9,286047001.0,N
1597098975.7,286046998.5,N
1597098995.5,286046998.3,N
1597099015.4,286046999.6,N
1597099035.2,286046998.5,N
1597099055.0,286046999.3,N
1597099055.9,286046999.3,N
1597099075.8,286046999.3,N
1597099095.6,286046999.2,N
1597099115.5,286046998.6,N
1597099135.3,286047001.0,N
1597099155.1,286047001.2,N
1597099175.9,286047001.1,N
1597099195.7,286047000.6,N
1597099215.5,286047000.7,N
1597099235.4,286046998.2,N
1597099255.2,286046998.3,N
1597099275.1,286047000.8,N
1597099276.0,286047000.8,N
1597099295.8,286046998.1,N
1597099315.6,286047000.9,N
1597099335.5,286046998.1,N
1597099355.3,286047000.8,N
1597099375.2,286046998.2,N
1597099395.9,286046998.2,N
1597099415.7,286047001.2,N
1597099435.6,286046998.3,N
1597099455.4,286046999.4,N
1597099475.2,286046999.2,N
1597099495.1,286046996.9,N
1597099496.0,286046996.9,N
1597099515.8,286046999.4,N
1597099535.7,286046998.9,N
1597099555.5,286046999.4,N
1597099575.3,286046997.1,N
1597099595.2,286046997.0,N
1597099615.0,286046997.8,N
1597099615.9,286046997.8,N
1597099635.8,286046994.9,Y
1597099655.6,286046999.3,P
1597099675.4,286046999.1,P
1597099695.3,286046994.9,P
1597099715.1,286046997.1,N
1597099735.9,286046996.8,N
1597099755.7,286046997.0,N
1597099775.5,286046997.8,N
1597099795.4,286046997.5,N
1597099815.2,286046995.3,Y
1597099835.1,286046999.5,P
1597099836.0,286046999.5,N
1597099855.8,286046998.9,N
1597099875.6,286046999.2,N
1597099895.5,286046997.0,Y
1597099915.3,286046998.8,P
1597099935.2,286046998.4,P
1597099955.9,286046999.0,P
1597099975.7,286046996.6,Y
1597099995.6,286046998.7,P
1597100015.4,286046998.6,P
1597100035.2,286046998.8,P
1597100055.1,286047000.7,Y
1597100056.0,286047000.7,P
1597100075.8,286047000.6,N
1597100095.7,286046998.6,N
1597100115.5,286047000.4,N
1597100135.3,286047000.2,N
1597100155.2,286047000.0,N
1597100175.0,286047000.6,N
1597100175.9,286047000.6,N
1597100195.7,286047000.9,N
1597100215.6,286047000.3,N
1597100235.4,286047000.5,N
1597100255.3,286046998.3,N
1597100275.1,286046998.8,N
1597100276.0,286046998.8,N
1597100295.8,286046999.3,N
1597100315.7,286046999.3,N
1597100335.5,286046999.0,N
1597100355.3,286046999.4,N
1597100375.2,286046999.6,N
1597100395.0,286046999.5,N
1597100395.9,286046999.5,N
